This demonstration page uses our WeatherBlox Daily Observations layout. Learn more.

Left ArrowRight Arrow

34.74481, -87.66753

Hourly Observations for February 18, 2020

Temp ( °F °C ) Dew Point ( °F °C ) Humidity (%) Winds ( mph kmh ) Pressure ( in mb ) Visibility ( mi km ) Precip ( " mm )
12:12 am 00:12 Cloudy 59 15 54 12.2 83 83 SSE 9 15 30.00 1016 10 16 0.00 0.00
12:39 am 00:39 Cloudy with Heavy Rain 58 14.4 55 12.8 90 90 S 9 15 30.03 1017 3 4 0.05 1.27
12:53 am 00:53 Cloudy with Light Rain 58 14.4 55 12.8 90 90 S 8 13 30.01 1016 4 6 0.10 2.54
1:09 am 01:09 Cloudy with Heavy Rain 58 14.4 55 12.8 90 90 SSE 5 7 30.03 1017 4 6 0.05 1.27
1:12 am 01:12 Cloudy with Light Rain 57 13.9 55 12.8 93 93 S 3 6 30.03 1017 4 6 0.06 1.52
1:14 am 01:14 Cloudy with Light Rain 57 13.9 55 12.8 93 93 S 3 6 30.02 1017 3 5 0.07 1.78
1:23 am 01:23 Cloudy with Light Rain 57 13.9 55 12.8 93 93 S 3 6 30.02 1017 6 10 0.09 2.29
1:53 am 01:53 Cloudy with Light Rain 57 13.9 55 12.8 93 93 S 5 7 30.01 1016 7 11 0.14 3.56
2:53 am 02:53 Cloudy 58 14.4 55 12.8 90 90 SSE 8 13 29.99 1016 10 16 0.00 0.00
3:53 am 03:53 Cloudy 58 14.4 55 12.8 90 90 SSE 7 11 29.99 1016 9 14 0.01 0.25
4:28 am 04:28 Cloudy 58 14.4 56 13.3 93 93 SSE 7 11 29.99 1016 7 11 0.00 0.00
4:53 am 04:53 Cloudy 58 14.4 56 13.3 93 93 S 6 9 30.00 1016 8 13 0.00 0.00
5:53 am 05:53 Cloudy 59 15 57 13.9 93 93 SSW 7 11 30.00 1016 9 14 0.00 0.00
6:53 am 06:53 Cloudy with Light Rain 59 15 57 13.9 93 93 S 7 11 30.01 1016 8 13 0.00 0.00
7:08 am 07:08 Cloudy 60 15.6 57 13.9 90 90 S 8 13 30.04 1017 10 16 0.00 0.00
7:31 am 07:31 Cloudy with Nearby Thunderstorms 60 15.6 57 13.9 90 90 SSW 8 13 30.05 1017 10 16 0.00 0.00
7:53 am 07:53 Cloudy with Nearby Thunderstorms 60 15.6 58 14.4 93 93 SSW 6 9 30.04 1017 9 14 0.02 0.51
8:03 am 08:03 Mostly Cloudy 60 15.6 58 14.4 93 93 S 8 13 30.04 1017 10 16 0.00 0.00
8:19 am 08:19 Mostly Cloudy 61 16.1 58 14.4 90 90 S 8 13 30.06 1018 10 16 0.00 0.00
8:28 am 08:28 Cloudy 61 16.1 58 14.4 90 90 SSW 7 11 30.05 1017 10 16 0.00 0.00
8:53 am 08:53 Cloudy 61 16.1 59 15 93 93 SSW 8 13 30.04 1017 10 16 0.00 0.00
9:53 am 09:53 Cloudy with Light Rain 62 16.7 60 15.6 93 93 S 5 7 30.03 1017 6 10 0.01 0.25
10:38 am 10:38 Cloudy with Light Rain 63 17.2 60 15.6 90 90 S 9 15 30.02 1017 7 11 0.04 1.02
10:50 am 10:50 Cloudy 63 17 61 16 94 94 SSW 7 11 30.02 1017 10 16 0.04 1.02
10:53 am 10:53 Cloudy 63 17.2 61 16.1 93 93 SSW 9 15 30.02 1017 10 16 0.04 1.02
11:19 am 11:19 Cloudy with Light Rain 63 17.2 61 16.1 93 93 WSW 8 13 30.04 1017 9 14 0.01 0.25
11:29 am 11:29 Cloudy with Rain 63 17.2 60 15.6 90 90 W 9 15 30.04 1017 2 3 0.02 0.51
11:39 am 11:39 Cloudy with Heavy Rain 62 16.7 58 14.4 86 86 W 9 15 30.03 1017 2 3 0.04 1.02
11:46 am 11:46 Cloudy with Heavy Rain 62 16.7 58 14.4 86 86 SW 8 13 30.03 1017 3 4 0.05 1.27
11:53 am 11:53 Cloudy with Heavy Rain 61 16.1 58 14.4 90 90 SSW 6 9 30.02 1017 3 4 0.06 1.52
12:00 pm 12:00 Cloudy with Light Rain 61 16.1 58 14.4 90 90 SSW 6 9 30.03 1017 8 13 0.02 0.51
12:13 pm 12:13 Cloudy with Thunderstorms 61 16.1 58 14.4 90 90 SSW 6 9 30.02 1016 7 11 0.04 1.02
12:25 pm 12:25 Cloudy 61 16.1 59 15 93 93 SSW 5 7 30.02 1016 10 16 0.06 1.52
12:53 pm 12:53 Cloudy 61 16.1 58 14.4 90 90 Calm 30.01 1016 10 16 0.10 2.54
1:30 pm 13:30 Cloudy with Rain 61 16.1 59 15 93 93 WSW 5 7 30.02 1016 2 3 0.04 1.02
1:45 pm 13:45 Cloudy with Light Rain 61 16.1 58 14.4 90 90 Calm 30.02 1016 9 14 0.06 1.52
1:53 pm 13:53 Cloudy with Light Rain 61 16.1 58 14.4 90 90 W 7 11 30.02 1017 9 14 0.06 1.52
2:53 pm 14:53 Cloudy with Heavy Rain 61 16.1 59 15 93 93 SSW 3 6 30.01 1016 3 5 0.07 1.78
3:45 pm 15:45 Cloudy 62 16.7 59 15 90 90 Calm 30.01 1016 10 16 0.05 1.27
3:53 pm 15:53 Cloudy 62 16.7 59 15 90 90 NW 3 6 30.02 1017 10 16 0.05 1.27
4:15 pm 16:15 Cloudy 62 16.7 59 15 90 90 N 8 13 30.03 1017 10 16 0.01 0.25
4:32 pm 16:32 Cloudy 62 16.7 58 14.4 86 86 N 7 11 30.05 1018 10 16 0.01 0.25
4:49 pm 16:49 Cloudy 61 16 57 14 88 88 N 12 19 30.07 1018 10 16 0.01 0.25
4:53 pm 16:53 Cloudy 61 16.1 56 13.3 84 84 N 12 19 30.07 1018 10 16 0.01 0.25
5:11 pm 17:11 Cloudy 59 15 55 12.8 87 87 N 10 17 30.09 1019 9 14 0.00 0.00
5:27 pm 17:27 Cloudy 58 14.4 53 11.7 84 84 NNE 16 26 30.10 1019 10 16 0.00 0.00
5:53 pm 17:53 Cloudy 55 12.8 51 10.6 87 87 N 13 20 30.11 1020 10 16 0.00 0.00
6:22 pm 18:22 Cloudy with Light Rain 54 12.2 48 8.9 80 80 N 13 20 30.14 1021 9 14 0.00 0.00
6:53 pm 18:53 Cloudy with Light Rain 52 11.1 45 7.2 77 77 NE 16 26 30.14 1021 10 16 0.01 0.25
7:01 pm 19:01 Cloudy with Light Rain 51 10.6 45 7.2 80 80 N 10 17 30.17 1022 10 16 0.01 0.25
7:13 pm 19:13 Cloudy 51 10.6 45 7.2 80 80 NNE 10 17 30.17 1022 10 16 0.01 0.25
7:53 pm 19:53 Cloudy with Light Rain 50 10 43 6.1 77 77 N 9 15 30.19 1022 10 16 0.01 0.25
8:53 pm 20:53 Cloudy with Light Rain 49 9.4 43 6.1 80 80 NNE 6 9 30.20 1023 10 16 0.03 0.76
9:53 pm 21:53 Mostly Cloudy 48 8.9 42 5.6 80 80 NNE 8 13 30.23 1024 10 16 0.01 0.25
10:53 pm 22:53 Cloudy 47 8.3 42 5.6 83 83 N 5 7 30.23 1024 10 16 0.01 0.25
11:24 pm 23:24 Cloudy 47 8.3 42 5.6 83 83 N 8 13 30.26 1025 10 16 0.00 0.00
11:53 pm 23:53 Cloudy 47 8.3 41 5 80 80 NNE 12 19 30.23 1024 10 16 0.00 0.00

Powered by AerisWeather